TimeMDT,TemperatureF,Dew PointF,Humidity,Sea Level PressureIn,VisibilityMPH,Wind Direction,Wind SpeedMPH,Gust SpeedMPH,PrecipitationIn,Events,Conditions,WindDirDegrees,DateUTC
12:52 AM,33.1,19.9,59,30.24,10.0,North,17.3,24.2,N/A,,Overcast,350,2013-05-01 06:52:00
1:52 AM,32.0,19.0,59,30.22,10.0,NNW,25.3,-,N/A,,Overcast,340,2013-05-01 07:52:00
2:52 AM,32.0,19.9,61,30.27,10.0,North,11.5,-,N/A,,Overcast,350,2013-05-01 08:52:00
3:52 AM,32.0,19.9,61,30.34,10.0,North,10.4,-,N/A,,Overcast,350,2013-05-01 09:52:00
4:52 AM,32.0,19.0,59,30.38,10.0,North,11.5,-,N/A,,Overcast,350,2013-05-01 10:52:00
5:52 AM,30.9,18.0,59,30.41,10.0,North,10.4,-,N/A,,Scattered Clouds,360,2013-05-01 11:52:00
6:52 AM,30.9,19.9,64,30.45,10.0,North,6.9,-,N/A,,Mostly Cloudy,360,2013-05-01 12:52:00
7:52 AM,34.0,18.0,52,30.47,10.0,NNE,12.7,-,N/A,,Clear,20,2013-05-01 13:52:00
8:52 AM,34.0,18.0,52,30.49,10.0,NE,12.7,-,N/A,,Scattered Clouds,40,2013-05-01 14:52:00
9:52 AM,37.0,19.0,48,30.51,10.0,North,10.4,-,N/A,,Clear,360,2013-05-01 15:52:00
10:52 AM,39.9,19.0,43,30.52,10.0,NNW,13.8,19.6,N/A,,Partly Cloudy,340,2013-05-01 16:52:00
11:52 AM,42.1,18.0,38,30.51,10.0,North,11.5,20.7,N/A,,Clear,350,2013-05-01 17:52:00
12:52 PM,45.0,19.0,36,30.51,10.0,North,17.3,25.3,N/A,,Clear,350,2013-05-01 18:52:00
1:52 PM,46.9,17.1,30,30.51,10.0,North,11.5,25.3,N/A,,Clear,10,2013-05-01 19:52:00
2:52 PM,48.9,17.1,28,30.51,10.0,North,13.8,20.7,N/A,,Clear,360,2013-05-01 20:52:00
3:52 PM,48.0,16.0,28,30.53,10.0,NNE,13.8,18.4,N/A,,Clear,20,2013-05-01 21:52:00
4:52 PM,48.9,15.1,26,30.53,10.0,North,13.8,20.7,N/A,,Partly Cloudy,360,2013-05-01 22:52:00
5:52 PM,48.0,10.9,22,30.55,10.0,NNE,12.7,19.6,N/A,,Partly Cloudy,20,2013-05-01 23:52:00
6:52 PM,46.0,10.0,23,30.56,10.0,NE,13.8,-,N/A,,Clear,40,2013-05-02 00:52:00
7:52 PM,37.0,12.9,37,30.61,10.0,North,6.9,-,N/A,,Clear,10,2013-05-02 01:52:00
8:52 PM,30.9,12.9,47,30.65,10.0,NNE,6.9,-,N/A,,Clear,30,2013-05-02 02:52:00
9:52 PM,28.9,14.0,54,30.67,10.0,NE,6.9,-,N/A,,Clear,40,2013-05-02 03:52:00
10:52 PM,28.9,12.9,51,30.66,10.0,NNE,6.9,-,N/A,,Clear,20,2013-05-02 04:52:00
11:52 PM,28.0,14.0,56,30.67,10.0,NW,6.9,-,N/A,,Clear,310,2013-05-02 05:52:00